• Join FlightAware (Why Join?)
  • Login
  • US Flag GB Flag 
09:57 EDT


 

Airport Tracker/Info


-or-


 

Live Flight TrackerFlight Track Log ✈ N5765H ✈ 27-Mar-2014 ✈ KCRG - KFAY

Flight Track Log - Related Links

Times and Time Zones

All times are in EDT time to prevent confusion due to time zone crossing. See the N5765H flight status page for this flight to view local times or setup timezone preferences in your user account.

Time Position Orientation Groundspeed Altitude Reporting Facility
EDT Latitude Longitude Course Direction KTS MPH feet Rate Location/Type
11:07 30.3297 -81.4822 90° East 76 87 1,100  Level Jacksonville Center
11:07 30.3297 -81.4750 90° East 73 84 1,200 600 Climbing Jacksonville Center
11:08 30.3336 -81.4508 79° East 70 81 1,900 600 Climbing Jacksonville Center
11:09 30.3394 -81.4292 73° East 68 78 2,500 480 Climbing Jacksonville Center
11:10 30.3625 -81.4314 355° North 96 110 3,000 420 Climbing Jacksonville Center
11:11 30.3878 -81.4428 339° North 105 121 3,400 480 Climbing Jacksonville Center
11:12 30.4169 -81.4306 20° North 106 122 4,000 600 Climbing Jacksonville Center
11:12 30.4231 -81.4256 35° Northeast 107 123 4,100 600 Climbing Jacksonville Center
11:13 30.4522 -81.4131 20° North 107 123 4,700 480 Climbing Jacksonville Center
11:14 30.4686 -81.4008 33° Northeast 103 119 5,100 360 Climbing Jacksonville Center
11:14 30.4769 -81.3933 38° Northeast 102 117 5,100 -120 Level Jacksonville Center
11:15 30.5039 -81.3761 29° Northeast 149 171 5,000 -120 Descending Jacksonville Center
11:15 30.5081 -81.3736 27° Northeast 148 170 5,000  Level Jacksonville Center
11:16 30.5411 -81.3536 28° Northeast 158 182 5,000  Level Jacksonville Center
11:16 30.5475 -81.3489 32° Northeast 154 177 5,000  Level Jacksonville Center
11:17 30.5786 -81.3314 26° Northeast 158 182 5,000  Level Jacksonville Center
11:17 30.5911 -81.3289 10° North 154 177 5,000  Level Jacksonville Center
11:18 30.6219 -81.3067 32° Northeast 154 177 5,000  Level Jacksonville Center
11:19 30.6614 -81.2842 26° Northeast 154 177 5,000  Level Jacksonville Center
11:20 30.6986 -81.2594 30° Northeast 154 177 5,000  Level Jacksonville Center
11:21 30.7403 -81.2417 20° North 154 177 5,000  Level Jacksonville Center
11:22 30.7794 -81.2194 26° Northeast 154 177 5,000  Level Jacksonville Center
11:23 30.8169 -81.1994 25° Northeast 154 177 5,000  Level Jacksonville Center
11:24 30.8606 -81.1792 22° Northeast 154 177 5,000  Level Jacksonville Center
11:25 30.9019 -81.1639 18° North 154 177 5,000  Level Jacksonville Center
11:26 30.9414 -81.1461 21° North 149 171 5,000  Level Jacksonville Center
11:27 30.9831 -81.1286 20° North 149 171 5,000  Level Jacksonville Center
11:28 31.0244 -81.1156 15° North 149 171 5,000  Level Jacksonville Center
11:29 31.0619 -81.0956 25° Northeast 149 171 5,000  Level Jacksonville Center
11:30 31.1011 -81.0753 24° Northeast 149 171 5,000  Level Jacksonville Center
11:31 31.1447 -81.0575 19° North 149 171 5,000  Level Jacksonville Center
11:32 31.1864 -81.0372 23° Northeast 149 171 5,000  Level Jacksonville Center
11:33 31.2256 -81.0169 24° Northeast 149 171 5,000  Level Jacksonville Center
11:34 31.2631 -81.0042 16° North 149 171 5,000  Level Jacksonville Center
11:35 31.3086 -80.9839 21° North 149 171 5,000  Level Jacksonville Center
11:36 31.3481 -80.9658 21° North 149 171 5,000  Level Jacksonville Center
11:37 31.3897 -80.9506 17° North 149 171 5,000  Level Jacksonville Center
11:38 31.4247 -80.9328 23° Northeast 149 171 5,000  Level Jacksonville Center
11:39 31.4664 -80.9197 15° North 149 171 5,000  Level Jacksonville Center
11:40 31.5142 -80.9017 18° North 149 171 5,000  Level Jacksonville Center
11:41 31.5556 -80.8861 18° North 149 171 5,000  Level Jacksonville Center
11:42 31.5950 -80.8658 24° Northeast 149 171 5,000  Level Jacksonville Center
11:43 31.6322 -80.8503 20° North 149 171 5,000  Level Jacksonville Center
11:44 31.6781 -80.8322 19° North 149 171 5,000  Level Jacksonville Center
11:46 31.6994 -80.7880 60° Northeast  Level FlightAware Approximate
11:53 31.9644 -80.6403 25° Northeast  Level Estimated
11:54 31.9909 -80.6020 51° Northeast  Level FlightAware Approximate
11:55 32.0174 -80.5638 51° Northeast  Level FlightAware Approximate
11:56 32.0554 -80.5430 24° Northeast  Level Estimated
11:57 32.0928 -80.5208 27° Northeast  Level FlightAware Approximate
11:58 32.1302 -80.4985 27° Northeast  Level FlightAware Approximate
11:59 32.1676 -80.4761 27° Northeast  Level FlightAware Approximate
12:00 32.2049 -80.4538 27° Northeast  Level FlightAware Approximate
12:01 32.2423 -80.4314 27° Northeast  Level FlightAware Approximate
12:02 32.2797 -80.4091 27° Northeast  Level FlightAware Approximate
12:03 32.3170 -80.3867 27° Northeast  Level FlightAware Approximate
12:04 32.3544 -80.3643 27° Northeast  Level FlightAware Approximate
12:05 32.3918 -80.3418 27° Northeast  Level FlightAware Approximate
12:06 32.4291 -80.3194 27° Northeast  Level FlightAware Approximate
12:07 32.4664 -80.2969 27° Northeast  Level FlightAware Approximate
12:08 32.5045 -80.2762 24° Northeast  Level Estimated
12:09 32.5425 -80.2553 25° Northeast  Level FlightAware Approximate
12:10 32.5805 -80.2344 25° Northeast  Level FlightAware Approximate
12:11 32.6185 -80.2134 25° Northeast  Level FlightAware Approximate
12:12 32.6565 -80.1925 25° Northeast  Level FlightAware Approximate
12:13 32.6944 -80.1715 25° Northeast  Level FlightAware Approximate
12:14 32.7325 -80.1507 27° Northeast  Level Estimated
12:15 32.7697 -80.1278 27° Northeast  Level FlightAware Approximate
12:16 32.8069 -80.1049 27° Northeast  Level FlightAware Approximate
12:17 32.8441 -80.0820 27° Northeast  Level FlightAware Approximate
12:18 32.8813 -80.0591 27° Northeast  Level FlightAware Approximate
12:19 32.9185 -80.0361 27° Northeast  Level FlightAware Approximate
12:20 32.9566 -80.0154 23° Northeast  Level Estimated
12:21 32.9950 -79.9955 24° Northeast  Level FlightAware Approximate
12:22 33.0333 -79.9754 24° Northeast  Level FlightAware Approximate
12:23 33.0717 -79.9554 24° Northeast  Level FlightAware Approximate
12:24 33.1101 -79.9354 24° Northeast  Level FlightAware Approximate
12:25 33.1484 -79.9153 24° Northeast  Level FlightAware Approximate
12:26 33.1868 -79.8952 24° Northeast  Level FlightAware Approximate
12:27 33.2252 -79.8752 24° Northeast  Level FlightAware Approximate
12:28 33.2635 -79.8550 24° Northeast  Level FlightAware Approximate
12:29 33.3019 -79.8349 24° Northeast  Level FlightAware Approximate
12:30 33.3402 -79.8148 24° Northeast  Level FlightAware Approximate
12:31 33.3786 -79.7946 24° Northeast  Level FlightAware Approximate
12:32 33.4166 -79.7735 25° Northeast  Level Estimated
12:33 33.4544 -79.7520 25° Northeast  Level FlightAware Approximate
12:34 33.4923 -79.7305 25° Northeast  Level FlightAware Approximate
12:35 33.5301 -79.7090 25° Northeast  Level FlightAware Approximate
12:36 33.5680 -79.6874 25° Northeast  Level FlightAware Approximate
12:37 33.6058 -79.6659 25° Northeast  Level FlightAware Approximate
12:38 33.6436 -79.6443 25° Northeast  Level FlightAware Approximate
12:39 33.6815 -79.6227 25° Northeast  Level FlightAware Approximate
12:40 33.7193 -79.6011 25° Northeast  Level FlightAware Approximate
12:41 33.7571 -79.5795 25° Northeast  Level FlightAware Approximate
12:42 33.7949 -79.5578 25° Northeast  Level FlightAware Approximate
12:43 33.8327 -79.5361 25° Northeast  Level FlightAware Approximate
12:44 33.8707 -79.5149 27° Northeast  Level Estimated
12:45 33.9078 -79.4915 28° Northeast  Level FlightAware Approximate
12:46 33.9450 -79.4681 28° Northeast  Level FlightAware Approximate
12:47 33.9821 -79.4447 28° Northeast  Level FlightAware Approximate
12:48 34.0201 -79.4237 25° Northeast  Level Estimated
12:49 34.0581 -79.4023 25° Northeast  Level FlightAware Approximate
12:50 34.0961 -79.3810 25° Northeast  Level FlightAware Approximate
12:51 34.1340 -79.3596 25° Northeast  Level FlightAware Approximate
12:52 34.1720 -79.3383 25° Northeast  Level FlightAware Approximate
12:53 34.2100 -79.3169 25° Northeast  Level FlightAware Approximate
12:54 34.2479 -79.2955 25° Northeast  Level FlightAware Approximate
12:55 34.2859 -79.2740 25° Northeast  Level FlightAware Approximate
12:56 34.3238 -79.2526 25° Northeast  Level FlightAware Approximate
12:57 34.3618 -79.2311 25° Northeast  Level FlightAware Approximate
12:58 34.3999 -79.2100 25° Northeast  Level Estimated
12:59 34.4380 -79.1889 25° Northeast  Level FlightAware Approximate
13:00 34.4760 -79.1677 25° Northeast  Level FlightAware Approximate
13:01 34.5141 -79.1465 25° Northeast  Level FlightAware Approximate
13:02 34.5522 -79.1253 25° Northeast  Level FlightAware Approximate
13:03 34.5902 -79.1040 25° Northeast  Level FlightAware Approximate
13:04 34.6283 -79.0828 25° Northeast  Level FlightAware Approximate
13:05 34.6663 -79.0615 25° Northeast  Level FlightAware Approximate
13:06 34.7044 -79.0404 26° Northeast  Level Estimated
13:07 34.7422 -79.0184 26° Northeast  Level FlightAware Approximate
13:08 34.7800 -78.9964 26° Northeast  Level FlightAware Approximate
13:09 34.8178 -78.9744 26° Northeast  Level FlightAware Approximate
13:10 34.8555 -78.9523 26° Northeast  Level FlightAware Approximate